Location: Carri�res
(48.9069°N, 2.1792°E)
Time: 20:56:57
(UTC+00:00)

Cosmos 1833 Rocket - Pass Details

Date: 17 January 2021
Orbit: 833 x 839 km, 71.0° (Epoch: 02 March)

Event Time Altitude Azimuth Distance (km) Brightness Sun altitude
Rises 18:36:59 0° 335° (NNW) 3,392 6.1 -21.1°
Reaches altitude 10° 18:40:02 10° 351° (N) 2,455 5.1 -21.6°
Enters shadow 18:42:53 20° 20° (NNE) 1,860 4.2 -22.0°
